RADUGA 31 [-]

Last updated on Nov. 12, 2019, 4:19 a.m. UTC

1 23010U 94012A   19315.76541073  .00000109  00000-0  00000+0 0  9993
2 23010  14.9024   7.7521 0004525  12.7815 352.6254  1.00244690 94185
UTC
Height (km)
Latitude
Longitude
Inclination
Orbital Period
UTC large
Height (km)
Speed (km/s)
/
Latitude / Longitude
Inclination (degrees)
Orbital Period (minutes)
Azimuth
Elevation
Range (km)
Doppler Factor
iOS Compass Heading
iOS Angle

Next 30 passes for location: Hong Kong

Rise time Rise Azimuth (degrees) Set time Set Azimuth (degrees) Duration Max altitude (degrees)

No matching passes for this satellites